Tracking 19709 objects as of 19-Jun-2019
HD Live streaming from Space Station
objects crossing your sky now

BREEZE-M R/B

Track BREEZE-M R/B now!


NORAD ID: 28360
Int'l Code: 2004-022C
Perigee: 4,430.2 km
Apogee: 35,787.5 km
Inclination: 24.0 °
Period: 714.7 minutes
Semi major axis: 26479 km
RCS: 6.6176 m2 (large)
Launch date: June 16, 2004
Source: Commonwealth of Independent States (former USSR) (CIS)
Launch site: TYURATAM MISSILE AND SPACE COMPLEX (TTMTR)

Note: This is a ROCKET BODY
aabbcc
Your satellite tracking list
Your tracking list is empty




NASA's NSSDC Master Catalog

Two Line Element Set (TLE):
1 28360U 04022C   19169.47927594 -.00000209 +00000-0 +00000-0 0  9992
2 28360 024.0470 123.0583 5920981 017.5711 356.1149 02.01478815109843
Source of the keplerian elements: AFSPC